Lid_Strength_Index
1 0 0 0 1 1 1 1 2 2 1 1 1 1 1 1 2 1 4 5 6 1 1 4 5 5 6 8 7 8 11 13 13 12 10 8 7 6 5 7 6 5 5 4 4
1 -0 0 1 1 1 1 1 1 2 1 1 1 1 1 2 3 3 1 2 2 1 5 5 6 6 7 8 7 9 12 10 9 10 10 7 6 6 7 7 7 6 5 4 5
1 0 1 1 1 1 2 2 2 2 2 1 1 1 1 2 4 5 1 1 1 2 6 6 6 7 8 8 8 10 11 9 8 8 9 9 8 7 7 9 7 8 6 5 6
0 0 0 1 1 1 2 2 2 2 2 2 1 1 1 2 10 5 0 0 -0 4 6 7 7 7 8 9 8 10 8 8 9 8 8 10 8 8 8 7 5 5 5 5 6
2 1 1 1 1 1 2 2 2 2 2 2 2 1 2 5 5 1 -1 0 2 4 5 6 7 8 9 9 8 9 8 7 8 8 9 8 8 7 8 5 4 5 5 5 5
2 2 2 2 1 2 2 3 3 3 2 2 2 2 3 9 1 1 3 2 4 4 4 5 6 7 8 9 9 8 8 8 8 9 9 8 8 7 7 5 5 5 5 7 7
3 3 3 3 3 3 3 3 4 3 3 2 2 1 4 6 1 0 1 2 2 3 4 3 5 7 8 9 8 8 10 9 8 9 9 9 11 9 6 5 6 5 7 8 8
3 3 3 4 4 4 4 4 4 4 3 2 2 3 6 0 1 1 1 2 2 2 2 3 4 7 8 8 8 10 10 13 9 8 8 9 12 8 6 6 6 7 8 8 9
4 4 4 4 4 4 4 4 4 3 3 2 4 4 7 0 3 1 1 3 4 3 3 3 7 9 9 11 12 12 14 13 11 8 9 10 12 7 7 6 7 8 8 9 9
4 4 4 4 4 4 5 4 3 3 3 2 2 6 4 5 2 2 3 3 5 5 6 8 10 12 12 13 15 14 14 12 13 10 10 11 11 9 7 7 7 8 9 9 9
5 4 4 4 4 4 4 5 9 8 5 6 6 6 5 2 1 3 2 5 6 7 10 9 12 13 12 11 11 11 12 13 11 9 11 11 11 10 8 8 9 9 10 9 10
5 4 4 3 4 4 5 7 7 8 11 6 6 6 3 2 6 4 2 6 8 10 9 11 13 9 9 10 11 11 12 12 10 9 10 11 12 11 9 9 9 9 10 10 10
5 5 4 4 4 5 6 5 4 6 11 9 7 7 7 7 8 7 5 6 8 10 10 12 10 8 9 10 11 11 12 12 12 10 11 12 13 12 10 9 8 8 8 9 10
4 5 4 5 6 5 7 4 4 4 15 14 11 9 8 8 10 7 6 6 8 10 9 10 8 9 9 10 10 12 10 10 11 13 15 12 17 14 11 10 9 9 9 9 10
4 4 5 4 5 7 4 3 3 6 23 13 11 7 8 10 9 8 6 7 9 10 9 11 10 10 11 10 9 11 9 10 11 13 16 14 16 15 13 12 10 9 9 9 9
4 4 4 4 5 4 3 3 5 16 23 13 9 11 11 10 9 8 8 7 7 9 9 9 7 8 9 8 9 9 11 11 13 15 16 15 15 15 13 11 10 9 8 9 9
2 2 4 4 6 4 4 6 16 21 13 14 13 12 12 12 11 10 10 11 12 14 14 11 11 9 8 10 8 9 13 17 18 19 18 14 14 14 12 10 9 9 8 8 9
2 2 3 3 3 3 5 11 19 16 15 11 12 12 14 12 12 12 11 13 9 10 13 14 16 11 9 10 11 11 11 17 21 19 17 13 17 15 11 10 10 9 7 8 9
2 5 5 3 2 2 8 15 18 14 12 12 12 13 13 12 12 12 11 11 10 10 15 16 15 9 8 8 9 11 13 10 14 14 17 16 14 12 12 11 11 9 8 9 10
6 6 6 2 1 4 9 13 13 10 11 11 14 12 15 13 13 12 12 9 10 8 8 12 16 11 9 8 8 10 10 14 14 19 20 17 16 15 13 12 12 11 10 10 10
7 9 5 2 2 6 12 13 10 9 9 11 12 13 13 14 12 12 12 10 9 9 8 10 13 13 11 12 13 12 13 12 12 13 18 19 16 13 11 10 11 10 9 10 10
8 11 5 2 9 11 11 9 7 9 7 9 10 11 12 12 13 13 13 10 8 8 11 10 13 16 14 10 8 10 12 13 17 16 16 16 15 11 11 11 10 9 8 8 9
13 12 5 3 12 13 10 9 8 9 8 8 9 8 9 11 12 11 11 9 8 8 10 10 14 18 16 13 10 12 12 12 13 15 17 19 17 10 10 10 9 9 8 8 8
7 13 11 8 7 10 10 10 10 7 8 7 8 8 9 10 9 11 10 8 7 7 7 8 12 15 18 15 12 14 13 12 14 17 17 16 14 12 11 11 10 9 8 8 8
8 10 8 16 13 10 9 9 10 11 7 7 9 9 10 12 12 12 10 9 8 7 8 9 14 13 13 12 12 12 13 12 14 14 17 14 14 13 11 10 9 8 8 7 7
9 11 10 10 8 9 9 11 11 10 9 10 10 9 9 11 11 13 10 10 11 9 9 9 14 13 14 12 13 14 13 12 12 12 13 13 14 10 10 9 9 8 8 7 7
7 6 7 10 10 11 12 10 9 8 8 7 8 9 10 9 8 7 7 7 8 10 11 11 12 14 17 12 13 16 14 13 13 11 12 15 12 10 10 9 9 8 7 7 7